| time (UTC) | temp F | wind direction | speed MPH | gust MPH | rain 1hr in | rain 24hr in | rain mn in | humidity % | barometer mb |
| 20260507130003 | 76 | 207 | 3.0 | 11.0 | 0.00 | 0.00 | 0.00 | 44 | 1008.3 |
| 20260507125403 | 75 | 190 | 3.0 | 12.0 | 0.00 | 0.00 | 0.00 | 42 | 1008.4 |
| 20260507124503 | 75 | 228 | 4.0 | 12.0 | 0.00 | 0.00 | 0.00 | 42 | 1008.5 |
| 20260507123603 | 75 | 217 | 4.0 | 12.0 | 0.00 | 0.00 | 0.00 | 44 | 1008.5 |
| 20260507122705 | 75 | 223 | 2.0 | 9.0 | 0.00 | 0.00 | 0.00 | 45 | 1008.6 |
| 20260507121803 | 75 | 185 | 2.0 | 10.0 | 0.00 | 0.00 | 0.00 | 45 | 1008.7 |
| 20260507120903 | 74 | 209 | 2.0 | 10.0 | 0.00 | 0.00 | 0.00 | 45 | 1008.8 |
| 20260507120004 | 75 | 194 | 2.0 | 12.0 | 0.00 | 0.00 | 0.00 | 45 | 1008.9 |
| 20260507115403 | 75 | 189 | 3.0 | 11.0 | 0.00 | 0.00 | 0.00 | 46 | 1008.8 |
| 20260507114503 | 74 | 219 | 2.0 | 8.0 | 0.00 | 0.00 | 0.00 | 48 | 1009.0 |
| 20260507113603 | 74 | 199 | 4.0 | 10.0 | 0.00 | 0.00 | 0.00 | 49 | 1009.1 |
| 20260507112703 | 74 | 164 | 5.0 | 9.0 | 0.00 | 0.00 | 0.00 | 49 | 1009.1 |
| 20260507112018 | 73 | 167 | 4.0 | 9.0 | 0.00 | 0.00 | 0.00 | 50 | 1009.3 |
| 20260507111121 | 74 | 168 | 2.0 | 9.0 | 0.00 | 0.00 | 0.00 | 47 | 1009.3 |
| 20260507110003 | 72 | 200 | 2.0 | 10.0 | 0.00 | 0.00 | 0.00 | 49 | 1009.3 |
| 20260507105403 | 72 | 176 | 2.0 | 10.0 | 0.00 | 0.00 | 0.00 | 54 | 1009.4 |
| 20260507104504 | 71 | 123 | 4.0 | 10.0 | 0.00 | 0.00 | 0.00 | 54 | 1009.4 |
| 20260507103603 | 71 | 134 | 3.0 | 12.0 | 0.00 | 0.00 | 0.00 | 55 | 1009.5 |
| 20260507102703 | 72 | 169 | 2.0 | 9.0 | 0.00 | 0.00 | 0.00 | 56 | 1009.6 |
| 20260507101803 | 72 | 180 | 2.0 | 10.0 | 0.00 | 0.00 | 0.00 | 57 | 1009.6 |
| 20260507100903 | 70 | 205 | 3.0 | 10.0 | 0.00 | 0.00 | 0.00 | 58 | 1009.7 |
| 20260507100219 | 70 | 122 | 4.0 | 11.0 | 0.00 | 0.00 | 0.00 | 62 | 1009.8 |
| 20260507095620 | 70 | 129 | 4.0 | 8.0 | 0.00 | 0.00 | 0.00 | 61 | 1009.7 |
| 20260507094503 | 70 | 133 | 3.0 | 10.0 | 0.00 | 0.00 | 0.00 | 59 | 1009.7 |
| 20260507093603 | 70 | 200 | 2.0 | 6.0 | 0.00 | 0.00 | 0.00 | 63 | 1009.8 |
| 20260507092703 | 69 | 179 | 2.0 | 8.0 | 0.00 | 0.00 | 0.00 | 64 | 1009.8 |
| 20260507091803 | 68 | 126 | 1.0 | 7.0 | 0.00 | 0.00 | 0.00 | 67 | 1009.8 |
| 20260507090903 | 67 | 169 | 1.0 | 6.0 | 0.00 | 0.00 | 0.00 | 69 | 1009.9 |
| 20260507090219 | 66 | 176 | 1.0 | 5.0 | 0.00 | 0.00 | 0.00 | 70 | 1009.9 |
| 20260507085403 | 66 | 196 | 1.0 | 6.0 | 0.00 | 0.00 | 0.00 | 72 | 1009.9 |
| 20260507084503 | 66 | 146 | 2.0 | 7.0 | 0.00 | 0.00 | 0.00 | 72 | 1009.8 |
| 20260507083603 | 65 | 119 | 2.0 | 6.0 | 0.00 | 0.00 | 0.00 | 73 | 1009.8 |
| 20260507082703 | 64 | 110 | 3.0 | 8.0 | 0.00 | 0.00 | 0.00 | 73 | 1009.8 |
| 20260507081803 | 64 | 90 | 2.0 | 8.0 | 0.00 | 0.00 | 0.00 | 73 | 1009.7 |
| 20260507080903 | 63 | 99 | 2.0 | 8.0 | 0.00 | 0.00 | 0.00 | 73 | 1009.7 |
| 20260507080003 | 63 | 100 | 1.0 | 6.0 | 0.00 | 0.00 | 0.00 | 74 | 1009.7 |
| 20260507075403 | 63 | 109 | 1.0 | 5.0 | 0.00 | 0.00 | 0.00 | 74 | 1009.6 |
| 20260507074503 | 62 | 97 | 2.0 | 6.0 | 0.00 | 0.00 | 0.00 | 74 | 1009.6 |
| 20260507073603 | 62 | 90 | 3.0 | 7.0 | 0.00 | 0.00 | 0.00 | 75 | 1009.5 |
| 20260507072919 | 61 | 89 | 2.0 | 6.0 | 0.00 | 0.00 | 0.00 | 76 | 1009.4 |
| 20260507071803 | 61 | 89 | 2.0 | 7.0 | 0.00 | 0.00 | 0.00 | 77 | 1009.4 |
| 20260507071118 | 60 | 87 | 2.0 | 7.0 | 0.00 | 0.00 | 0.00 | 77 | 1009.3 |
| 20260507070006 | 59 | 70 | 3.0 | 7.0 | 0.00 | 0.00 | 0.00 | 80 | 1009.2 |
| 20260507065617 | 59 | 66 | 2.0 | 7.0 | 0.00 | 0.00 | 0.00 | 80 | 1009.3 |
| 20260507064503 | 59 | 89 | 2.0 | 6.0 | 0.00 | 0.00 | 0.00 | 80 | 1009.2 |
| 20260507063817 | 58 | 84 | 1.0 | 5.0 | 0.00 | 0.00 | 0.00 | 81 | 1009.2 |
| 20260507062703 | 57 | 78 | 1.0 | 5.0 | 0.00 | 0.00 | 0.00 | 82 | 1009.1 |
| 20260507061803 | 57 | 65 | 1.0 | 5.0 | 0.00 | 0.00 | 0.00 | 83 | 1008.9 |
| 20260507060903 | 56 | 61 | 0.0 | 4.0 | 0.00 | 0.00 | 0.00 | 83 | 1008.9 |
| 20260507060003 | 56 | 65 | 0.0 | 2.0 | 0.00 | 0.00 | 0.00 | 83 | 1008.8 |
| 20260507055403 | 56 | 72 | 0.0 | 2.0 | 0.00 | 0.00 | 0.00 | 83 | 1008.7 |
| 20260507054503 | 56 | 80 | 0.0 | 2.0 | 0.00 | 0.00 | 0.00 | 83 | 1008.7 |
| 20260507053603 | 56 | 101 | 0.0 | 2.0 | 0.00 | 0.00 | 0.00 | 83 | 1008.6 |
| 20260507052703 | 56 | 81 | 0.0 | 2.0 | 0.00 | 0.00 | 0.00 | 83 | 1008.6 |
| 20260507051803 | 56 | 77 | 0.0 | 1.0 | 0.00 | 0.00 | 0.00 | 84 | 1008.7 |
| 20260507051120 | 56 | 78 | 0.0 | 1.0 | 0.00 | 0.00 | 0.00 | 83 | 1008.6 |
| 20260507050003 | 56 | 0 | 0.0 | 0.0 | 0.00 | 0.00 | 0.00 | 83 | 1008.7 |
| 20260507045403 | 56 | 67 | 0.0 | 2.0 | 0.00 | 0.00 | 0.00 | 83 | 1008.6 |
| 20260507044503 | 56 | 67 | 0.0 | 2.0 | 0.00 | 0.00 | 0.00 | 84 | 1008.4 |
| 20260507043818 | 56 | 68 | 0.0 | 1.0 | 0.00 | 0.00 | 0.00 | 84 | 1008.4 |
| 20260507042703 | 55 | 0 | 0.0 | 0.0 | 0.00 | 0.00 | 0.00 | 84 | 1008.2 |
| 20260507042018 | 55 | 79 | 0.0 | 1.0 | 0.00 | 0.00 | 0.00 | 84 | 1008.2 |
| 20260507040903 | 55 | 75 | 0.0 | 1.0 | 0.00 | 0.00 | 0.00 | 84 | 1008.2 |
| 20260507040003 | 55 | 0 | 0.0 | 0.0 | 0.00 | 0.00 | 0.00 | 84 | 1008.1 |
| 20260507035403 | 55 | 78 | 0.0 | 1.0 | 0.00 | 0.00 | 0.00 | 83 | 1008.1 |
| 20260507034503 | 55 | 77 | 0.0 | 1.0 | 0.00 | 0.00 | 0.00 | 83 | 1008.0 |
| 20260507033603 | 55 | 0 | 0.0 | 0.0 | 0.00 | 0.00 | 0.00 | 83 | 1007.9 |
| 20260507032921 | 55 | 0 | 0.0 | 0.0 | 0.00 | 0.00 | 0.00 | 83 | 1008.0 |
| 20260507031803 | 55 | 0 | 0.0 | 0.0 | 0.00 | 0.00 | 0.00 | 84 | 1008.0 |
| 20260507030903 | 55 | 0 | 0.0 | 0.0 | 0.00 | 0.00 | 0.00 | 83 | 1008.1 |
| 20260507030003 | 55 | 0 | 0.0 | 0.0 | 0.00 | 0.00 | 0.00 | 81 | 1008.0 |
| 20260507025403 | 55 | 0 | 0.0 | 0.0 | 0.00 | 0.00 | 0.00 | 82 | 1007.9 |
| 20260507024503 | 55 | 72 | 0.0 | 1.0 | 0.00 | 0.00 | 0.00 | 83 | 1007.9 |
| 20260507023603 | 55 | 79 | 0.0 | 1.0 | 0.00 | 0.00 | 0.00 | 82 | 1007.9 |
| 20260507022703 | 55 | 0 | 0.0 | 0.0 | 0.00 | 0.00 | 0.00 | 82 | 1007.9 |
| 20260507021803 | 55 | 0 | 0.0 | 0.0 | 0.00 | 0.00 | 0.00 | 82 | 1007.9 |
| 20260507021116 | 55 | 0 | 0.0 | 0.0 | 0.00 | 0.00 | 0.00 | 81 | 1007.9 |
| 20260507020003 | 56 | 0 | 0.0 | 0.0 | 0.00 | 0.00 | 0.00 | 81 | 1007.8 |
| 20260507015403 | 56 | 344 | 0.0 | 1.0 | 0.00 | 0.00 | 0.00 | 82 | 1008.0 |
| 20260507014503 | 56 | 334 | 0.0 | 3.0 | 0.00 | 0.00 | 0.00 | 82 | 1008.0 |
| 20260507013603 | 56 | 333 | 0.0 | 2.0 | 0.00 | 0.00 | 0.00 | 80 | 1008.0 |
| 20260507012703 | 56 | 0 | 0.0 | 0.0 | 0.00 | 0.00 | 0.00 | 77 | 1008.1 |
| 20260507011803 | 56 | 0 | 0.0 | 0.0 | 0.00 | 0.00 | 0.00 | 77 | 1008.1 |
| 20260507011117 | 57 | 0 | 0.0 | 0.0 | 0.00 | 0.00 | 0.00 | 76 | 1008.1 |
| 20260507010003 | 58 | 0 | 0.0 | 0.0 | 0.00 | 0.00 | 0.00 | 75 | 1008.3 |
| 20260507005403 | 58 | 0 | 0.0 | 0.0 | 0.00 | 0.00 | 0.00 | 78 | 1008.3 |
| 20260507004503 | 59 | 0 | 0.0 | 0.0 | 0.00 | 0.00 | 0.00 | 75 | 1008.4 |
| 20260507003603 | 59 | 0 | 0.0 | 0.0 | 0.00 | 0.00 | 0.00 | 76 | 1008.3 |
| 20260507002703 | 59 | 0 | 0.0 | 0.0 | 0.00 | 0.00 | 0.00 | 74 | 1008.4 |
| 20260507001803 | 59 | 0 | 0.0 | 0.0 | 0.00 | 0.00 | 0.00 | 73 | 1008.4 |
| 20260507000903 | 60 | 0 | 0.0 | 0.0 | 0.00 | 0.00 | 0.00 | 71 | 1008.4 |
| 20260507000003 | 60 | 0 | 0.0 | 0.0 | 0.00 | 0.00 | 0.00 | 71 | 1008.5 |
| 20260506235403 | 60 | 0 | 0.0 | 0.0 | 0.00 | 0.00 | 0.00 | 71 | 1008.5 |
| 20260506234503 | 60 | 0 | 0.0 | 0.0 | 0.00 | 0.00 | 0.00 | 71 | 1008.6 |
| 20260506233603 | 60 | 0 | 0.0 | 0.0 | 0.00 | 0.00 | 0.00 | 70 | 1008.5 |
| 20260506232703 | 60 | 178 | 0.0 | 3.0 | 0.00 | 0.00 | 0.00 | 70 | 1008.6 |
| 20260506232021 | 60 | 185 | 0.0 | 5.0 | 0.00 | 0.00 | 0.00 | 69 | 1008.6 |
| 20260506230903 | 61 | 170 | 1.0 | 4.0 | 0.00 | 0.00 | 0.00 | 67 | 1008.6 |
| 20260506230221 | 61 | 178 | 1.0 | 6.0 | 0.00 | 0.00 | 0.00 | 66 | 1008.6 |
| 20260506225403 | 61 | 180 | 0.0 | 5.0 | 0.00 | 0.00 | 0.00 | 65 | 1008.6 |
| 20260506224503 | 62 | 191 | 0.0 | 1.0 | 0.00 | 0.00 | 0.00 | 64 | 1008.6 |
| 20260506223603 | 62 | 0 | 0.0 | 0.0 | 0.00 | 0.00 | 0.00 | 63 | 1008.5 |
| 20260506222703 | 62 | 0 | 0.0 | 0.0 | 0.00 | 0.00 | 0.00 | 62 | 1008.5 |
| 20260506221803 | 62 | 245 | 0.0 | 3.0 | 0.00 | 0.00 | 0.00 | 62 | 1008.5 |
| 20260506220903 | 62 | 231 | 0.0 | 2.0 | 0.00 | 0.00 | 0.00 | 61 | 1008.4 |
| 20260506220004 | 63 | 232 | 0.0 | 3.0 | 0.00 | 0.00 | 0.00 | 60 | 1008.5 |
| 20260506215403 | 63 | 237 | 0.0 | 3.0 | 0.00 | 0.00 | 0.00 | 60 | 1008.5 |
| 20260506214503 | 63 | 0 | 0.0 | 0.0 | 0.00 | 0.00 | 0.00 | 59 | 1008.4 |
| 20260506213603 | 63 | 0 | 0.0 | 0.0 | 0.00 | 0.00 | 0.00 | 59 | 1008.4 |
| 20260506212703 | 63 | 0 | 0.0 | 0.0 | 0.00 | 0.00 | 0.00 | 59 | 1008.4 |
| 20260506211803 | 64 | 252 | 0.0 | 2.0 | 0.00 | 0.00 | 0.00 | 58 | 1008.2 |
| 20260506210903 | 64 | 0 | 0.0 | 0.0 | 0.00 | 0.00 | 0.00 | 58 | 1008.2 |
| 20260506210217 | 64 | 0 | 0.0 | 0.0 | 0.00 | 0.00 | 0.00 | 58 | 1008.2 |
| 20260506205403 | 65 | 291 | 0.0 | 4.0 | 0.00 | 0.00 | 0.00 | 57 | 1008.0 |
| 20260506204503 | 65 | 276 | 0.0 | 6.0 | 0.00 | 0.00 | 0.00 | 57 | 1007.9 |
| 20260506203603 | 65 | 271 | 0.0 | 5.0 | 0.00 | 0.00 | 0.00 | 56 | 1007.8 |
| 20260506202920 | 66 | 276 | 0.0 | 5.0 | 0.00 | 0.00 | 0.00 | 55 | 1007.8 |
| 20260506201803 | 66 | 271 | 0.0 | 4.0 | 0.00 | 0.00 | 0.00 | 54 | 1007.6 |
| 20260506200903 | 67 | 248 | 0.0 | 5.0 | 0.00 | 0.00 | 0.00 | 53 | 1007.6 |
| 20260506200217 | 67 | 270 | 1.0 | 5.0 | 0.00 | 0.00 | 0.00 | 53 | 1007.5 |
| 20260506195619 | 67 | 277 | 2.0 | 9.0 | 0.00 | 0.00 | 0.00 | 52 | 1007.5 |
| 20260506194503 | 68 | 281 | 2.0 | 8.0 | 0.00 | 0.00 | 0.00 | 51 | 1007.3 |
| 20260506193603 | 68 | 278 | 1.0 | 9.0 | 0.00 | 0.00 | 0.00 | 50 | 1007.3 |
| 20260506192703 | 69 | 284 | 1.0 | 7.0 | 0.00 | 0.00 | 0.00 | 49 | 1007.2 |
| 20260506191803 | 70 | 278 | 1.0 | 7.0 | 0.00 | 0.00 | 0.00 | 47 | 1007.1 |
| 20260506190903 | 71 | 273 | 1.0 | 9.0 | 0.00 | 0.00 | 0.00 | 46 | 1007.0 |
| 20260506190218 | 72 | 271 | 2.0 | 14.0 | 0.00 | 0.00 | 0.00 | 45 | 1006.9 |
| 20260506185620 | 72 | 280 | 2.0 | 12.0 | 0.00 | 0.00 | 0.00 | 44 | 1006.9 |
| 20260506184503 | 73 | 281 | 1.0 | 9.0 | 0.00 | 0.00 | 0.00 | 44 | 1006.8 |
| 20260506183603 | 74 | 265 | 2.0 | 9.0 | 0.00 | 0.00 | 0.00 | 43 | 1006.8 |
| 20260506182703 | 74 | 255 | 2.0 | 10.0 | 0.00 | 0.00 | 0.00 | 42 | 1006.8 |
| 20260506181803 | 75 | 249 | 3.0 | 12.0 | 0.00 | 0.00 | 0.00 | 41 | 1006.7 |
| 20260506180903 | 75 | 247 | 5.0 | 13.0 | 0.00 | 0.00 | 0.00 | 41 | 1006.7 |
| 20260506180004 | 76 | 247 | 4.0 | 12.0 | 0.00 | 0.00 | 0.00 | 40 | 1006.8 |
| 20260506175620 | 76 | 246 | 4.0 | 12.0 | 0.00 | 0.00 | 0.00 | 39 | 1006.7 |
| 20260506174718 | 76 | 251 | 5.0 | 12.0 | 0.00 | 0.00 | 0.00 | 39 | 1006.7 |
| 20260506173603 | 78 | 234 | 3.0 | 10.0 | 0.00 | 0.00 | 0.00 | 36 | 1006.6 |
| 20260506172703 | 79 | 204 | 2.0 | 8.0 | 0.00 | 0.00 | 0.00 | 33 | 1006.5 |
| 20260506172020 | 81 | 194 | 1.0 | 6.0 | 0.00 | 0.00 | 0.00 | 31 | 1006.6 |
| 20260506170903 | 80 | 249 | 0.0 | 1.0 | 0.00 | 0.00 | 0.00 | 29 | 1006.6 |
| 20260506170219 | 80 | 238 | 0.0 | 1.0 | 0.00 | 0.00 | 0.00 | 28 | 1006.7 |
| 20260506165403 | 80 | 251 | 1.0 | 7.0 | 0.00 | 0.00 | 0.00 | 29 | 1006.7 |
| 20260506164503 | 80 | 189 | 1.0 | 7.0 | 0.00 | 0.00 | 0.00 | 30 | 1006.8 |
| 20260506163821 | 79 | 136 | 2.0 | 7.0 | 0.00 | 0.00 | 0.00 | 30 | 1006.8 |
| 20260506162703 | 79 | 139 | 1.0 | 8.0 | 0.00 | 0.00 | 0.00 | 31 | 1006.9 |
| 20260506161803 | 79 | 143 | 1.0 | 7.0 | 0.00 | 0.00 | 0.00 | 31 | 1006.9 |
| 20260506160903 | 79 | 142 | 1.0 | 6.0 | 0.00 | 0.00 | 0.00 | 30 | 1007.0 |
| 20260506160220 | 79 | 138 | 1.0 | 6.0 | 0.00 | 0.00 | 0.00 | 30 | 1007.0 |
| 20260506155617 | 79 | 208 | 1.0 | 7.0 | 0.00 | 0.00 | 0.00 | 29 | 1007.0 |
| 20260506154503 | 78 | 227 | 2.0 | 7.0 | 0.00 | 0.00 | 0.00 | 30 | 1007.2 |
| 20260506153603 | 79 | 208 | 2.0 | 11.0 | 0.00 | 0.00 | 0.00 | 31 | 1007.2 |
| 20260506152703 | 78 | 145 | 1.0 | 6.0 | 0.00 | 0.00 | 0.00 | 31 | 1007.4 |
| 20260506151803 | 78 | 113 | 2.0 | 8.0 | 0.00 | 0.00 | 0.00 | 31 | 1007.4 |
| 20260506150903 | 78 | 126 | 1.0 | 6.0 | 0.00 | 0.00 | 0.00 | 30 | 1007.7 |
| 20260506150221 | 78 | 201 | 3.0 | 9.0 | 0.00 | 0.00 | 0.00 | 31 | 1007.7 |
| 20260506145403 | 78 | 232 | 2.0 | 7.0 | 0.00 | 0.00 | 0.00 | 31 | 1007.8 |
| 20260506144503 | 78 | 277 | 1.0 | 7.0 | 0.00 | 0.00 | 0.00 | 31 | 1008.0 |
| 20260506143603 | 77 | 316 | 1.0 | 7.0 | 0.00 | 0.00 | 0.00 | 32 | 1008.1 |
| 20260506142703 | 78 | 49 | 0.0 | 4.0 | 0.00 | 0.00 | 0.00 | 31 | 1008.3 |
| 20260506141803 | 78 | 175 | 1.0 | 7.0 | 0.00 | 0.00 | 0.00 | 31 | 1008.5 |
| 20260506140903 | 77 | 151 | 1.0 | 8.0 | 0.00 | 0.00 | 0.00 | 31 | 1008.5 |
| 20260506140003 | 78 | 230 | 1.0 | 5.0 | 0.00 | 0.00 | 0.00 | 32 | 1008.6 |
| 20260506135403 | 77 | 290 | 1.0 | 5.0 | 0.00 | 0.00 | 0.00 | 32 | 1008.7 |
| 20260506134503 | 77 | 130 | 0.0 | 4.0 | 0.00 | 0.00 | 0.00 | 33 | 1008.7 |
| 20260506133603 | 76 | 117 | 1.0 | 5.0 | 0.00 | 0.00 | 0.00 | 33 | 1008.8 |
| 20260506132703 | 76 | 100 | 1.0 | 6.0 | 0.00 | 0.00 | 0.00 | 33 | 1009.0 |
| 20260506131803 | 76 | 253 | 2.0 | 5.0 | 0.00 | 0.00 | 0.00 | 34 | 1009.2 |
| 20260506131119 | 76 | 262 | 2.0 | 6.0 | 0.00 | 0.00 | 0.00 | 33 | 1009.3 |